This is the latest recevied weather packets stored in our database for station/object KE8URB. If no packets are shown the sender has not sent any weather packets the latest 10 day(s).
| Time | Temp. | Humidity | Pressure | Rain* | Wind** | Luminosity | Snow |
|---|---|---|---|---|---|---|---|
| 1787439757 | 19.44° C | 95% | 1010.9 hPa | 0 mm | - | 5 W/m² | - |
| 1787439453 | 19.44° C | 95% | 1010.9 hPa | 0 mm | - | 6 W/m² | - |
| 1787439150 | 19.44° C | 95% | 1011 hPa | 0 mm | - | 15 W/m² | - |
| 1787438845 | 19.44° C | 95% | 1010.8 hPa | 0 mm | - | 12 W/m² | - |
| 1787438544 | 18.89° C | 95% | 1010.5 hPa | 0 mm | - | 15 W/m² | - |
| 1787438239 | 18.89° C | 95% | 1010.1 hPa | 0 mm | - | 14 W/m² | - |
| 1787437934 | 18.89° C | 95% | 1010.1 hPa | 0 mm | - | 12 W/m² | - |
| 1787437630 | 18.89° C | 96% | 1010.1 hPa | 0 mm | - | 9 W/m² | - |
| 1787437327 | 19.44° C | 95% | 1010.1 hPa | 0 mm | - | 7 W/m² | - |
| 1787437023 | 19.44° C | 95% | 1010.2 hPa | 0 mm | - | 6 W/m² | - |
| 1787436718 | 19.44° C | 95% | 1010.2 hPa | 0 mm | - | 5 W/m² | - |
| 1787436414 | 19.44° C | 94% | 1010.2 hPa | 0 mm | - | 3 W/m² | - |
| 1787436113 | 19.44° C | 94% | 1010.6 hPa | 0 mm | - | 3 W/m² | - |
| 1787435808 | 19.44° C | 94% | 1011.3 hPa | 0 mm | - | 2 W/m² | - |
| 1787435504 | 20° C | 93% | 1011.6 hPa | 0 mm | - | 2 W/m² | - |
| 1787435201 | 20° C | 92% | 1011.8 hPa | 0 mm | - | 2 W/m² | - |
| 1787434897 | 20° C | 91% | 1011.5 hPa | 0 mm | - | 1 W/m² | - |
| 1787434593 | 20.56° C | 91% | 1011 hPa | 0 mm | - | 2 W/m² | - |
| 1787434289 | 20° C | 92% | 1010.9 hPa | 0 mm | - | 2 W/m² | - |
| 1787433984 | 20° C | 94% | 1011 hPa | 0 mm | - | 2 W/m² | - |
| 1787433684 | 20° C | 94% | 1010.9 hPa | 0 mm | - | 1 W/m² | - |
| 1787433380 | 20° C | 95% | 1011.4 hPa | 0 mm | - | 1 W/m² | - |
| 1787433075 | 20.56° C | 94% | 1011.2 hPa | 1.78 mm | - | 2 W/m² | - |
| 1787432772 | 21.11° C | 93% | 1011 hPa | 1.78 mm | - | 1 W/m² | - |
| 1787432468 | 22.22° C | 91% | 1011.5 hPa | 0 mm | - | 0 W/m² | - |
* Rain latest hour (hover to see other rain measurements)
** Current wind speed in m/s (hover to see current wind gust speed)